sat.trackr.live / text

‹ back to catalog

ONEWEB-0125

NORAD 47271 · 2020-100P

PAYLOAD ACTIVE UNKNOWN

§ Identity

Operator
Country
UK
Launch date
2020-12-18
Launch site
VOSTO
Launch vehicle
Mass (kg)
RCS (m²)

Purposes: comms

External: N2YO · Heavens-Above · Gunter

§ Orbital elements

Epoch: 2026-09-20T00:19:41.399040Z

Period
109.72 min
Inclination
87.8986°
Eccentricity
0.0002181
Mean motion
13.12443527 rev/d
Perigee alt
1,212.1 km
Apogee alt
1,215.4 km
Semi-major
7,591.9 km
B*
1.3171e-4
RAAN
331.8338°
Arg perigee
102.9707°
Mean anomaly
257.1665°
Rev number
27,707

§ Raw data

ONEWEB-01251 47271U 20100P   26263.01367360  .00000060  00000+0  13171-3 0  99902 47271  87.8986 331.8338 0002181 102.9707 257.1665 13.12443527277073

JSON: /api/v1/satellites/47271 · /tle

For live sub-satellite position, see the globe view (requires WebGL).

§ Visibility from observer

Set your observer location to see the next 7 days of passes ≥ 10°. The values pass through the URL so the page stays shareable.

No JS? Fill the form by hand. The geolocation button needs JavaScript.